Concerto — JJ3855 — position and weather

sailwx.info

Track history (hours):
 
Tides and Currents Weather Stations Pressure Air Temp Water Temp Dewpoint Dewpoint Depression Visibility Wind Speed Wind Dir Waves Ship Positions

Concerto

Last reported at 2014-Oct-21 11:33 UTC. Time now 2014-Oct-21 20:10 UTC.
Position N 34°38' E 135°10'.

Length 62 m; draft 3 m.

Type: Passenger vessel. MMSI: 431000448.

Date/timePositionNaut miles runAvg speedWind from/ knotsBaromVisibWave heightAir tempDewpointWater temp
2014-Oct-21 11:33N 34°38' E 135°10'2 2.1
2014-Oct-21 10:33N 34°40' E 135°11'1 0.7
2014-Oct-21 09:34N 34°39' E 135°11'1 0.7
2014-Oct-21 08:34N 34°39' E 135°11'2 2.0
2014-Oct-21 07:25N 34°41' E 135°11'3 3.9
2014-Oct-21 06:33N 34°38' E 135°09'3 2.2
2014-Oct-21 05:04N 34°41' E 135°11'0 0.8
2014-Oct-21 04:33N 34°40' E 135°11'3 3.1
2014-Oct-21 03:33N 34°38' E 135°09'3 3.2
2014-Oct-21 02:33N 34°41' E 135°11'3 0.2
2014-Oct-20 11:33N 34°38' E 135°11'2 1.8
2014-Oct-20 10:33N 34°40' E 135°11'1 0.7
2014-Oct-20 09:33N 34°39' E 135°11'1 0.9
2014-Oct-20 08:33N 34°38' E 135°11'2 2.2
2014-Oct-20 07:28N 34°41' E 135°11'3 3.4
2014-Oct-20 06:33N 34°38' E 135°09'3 2.6
2014-Oct-20 05:24N 34°41' E 135°11'1 0.8
2014-Oct-20 04:33N 34°40' E 135°12'3 2.9
2014-Oct-20 03:33N 34°38' E 135°09'3 3.1
2014-Oct-20 02:33N 34°41' E 135°11'3 0.2
2014-Oct-19 11:33N 34°38' E 135°10'3 2.6
2014-Oct-19 10:33N 34°40' E 135°11'1 1.0
2014-Oct-19 09:33N 34°39' E 135°11'1 0.7
2014-Oct-19 08:33N 34°39' E 135°11'2 2.2
2014-Oct-19 07:33N 34°41' E 135°11'3 3.0
2014-Oct-19 06:33N 34°38' E 135°09'3 2.9
2014-Oct-19 05:31N 34°41' E 135°11'1 0.7
2014-Oct-19 04:33N 34°40' E 135°12'3 3.1
2014-Oct-19 03:33N 34°38' E 135°09'2 0.1
2014-Oct-18 11:33N 34°38' E 135°11'2 1.8
2014-Oct-18 10:33N 34°40' E 135°11'0 0.2
2014-Oct-18 09:33N 34°39' E 135°11'1 1.1
2014-Oct-18 08:34N 34°39' E 135°11'2 2.2
2014-Oct-18 07:30N 34°41' E 135°11'3 3.7
2014-Oct-18 06:33N 34°38' E 135°09'3 3.0
2014-Oct-18 05:24N 34°41' E 135°11'1 0.7
2014-Oct-18 04:33N 34°40' E 135°12'3 3.2
2014-Oct-18 03:33N 34°38' E 135°09'3 3.4
2014-Oct-18 02:33N 34°41' E 135°11'3 0.2
2014-Oct-17 11:33N 34°38' E 135°11'2 1.9
2014-Oct-17 10:33N 34°40' E 135°11'1 0.5
2014-Oct-17 09:33N 34°39' E 135°11'1 1.0
2014-Oct-17 08:33N 34°39' E 135°10'2 2.3
2014-Oct-17 07:33N 34°41' E 135°11'4 3.8
2014-Oct-17 06:33N 34°38' E 135°09'4 3.5
2014-Oct-17 05:29N 34°41' E 135°11'0 0.5
2014-Oct-17 04:33N 34°40' E 135°11'3 3.4
2014-Oct-17 03:33N 34°38' E 135°09'4 3.6
2014-Oct-17 02:33N 34°41' E 135°11'3 0.2
2014-Oct-16 11:33N 34°38' E 135°10'2 2.1
2014-Oct-16 10:33N 34°40' E 135°11'0 0.2
2014-Oct-16 09:33N 34°40' E 135°11'1 1.1
2014-Oct-16 08:33N 34°39' E 135°11'2 1.8
2014-Oct-16 07:24N 34°41' E 135°11'3 3.8
2014-Oct-16 06:33N 34°38' E 135°09'3 3.2
2014-Oct-16 05:33N 34°41' E 135°11'1 0.6
2014-Oct-16 04:33N 34°40' E 135°12'3 2.7
2014-Oct-16 03:33N 34°38' E 135°10'3 2.9
2014-Oct-16 02:33N 34°41' E 135°11'3 0.2
2014-Oct-15 11:33N 34°38' E 135°11'2 1.5
2014-Oct-15 10:33N 34°40' E 135°11'0 0.5
2014-Oct-15 09:33N 34°39' E 135°11'1 0.9
2014-Oct-15 08:33N 34°38' E 135°11'2 2.4
2014-Oct-15 07:33N 34°41' E 135°11'4 3.6
2014-Oct-15 06:33N 34°38' E 135°09'4 3.6
2014-Oct-15 05:33N 34°41' E 135°11'1 0.6
2014-Oct-15 04:33N 34°40' E 135°12'3 3.3
2014-Oct-15 03:33N 34°38' E 135°09'3 3.5
2014-Oct-15 02:33N 34°41' E 135°11'3 0.2
2014-Oct-14 11:33N 34°38' E 135°11'2 1.7
2014-Oct-14 10:33N 34°40' E 135°11'0 0.4
2014-Oct-14 09:33N 34°39' E 135°11'1 0.9
2014-Oct-14 08:33N 34°38' E 135°11'2 2.4
2014-Oct-14 07:32N 34°41' E 135°11'4 3.7
2014-Oct-14 06:33N 34°38' E 135°09'4 3.6
2014-Oct-14 05:32N 34°41' E 135°11'1 0.6
2014-Oct-14 04:33N 34°40' E 135°12'3 3.3
2014-Oct-14 03:33N 34°38' E 135°09'3 3.5
2014-Oct-14 02:33N 34°41' E 135°11'0 0.0
2014-Oct-14 01:33N 34°41' E 135°11'0 0.0
2014-Oct-14 00:33N 34°41' E 135°11'0 0.0
2014-Oct-13 23:33N 34°41' E 135°11'2 2.4
2014-Oct-13 22:33N 34°38' E 135°11'6 6.4
2014-Oct-13 21:33N 34°32' E 135°14'5 4.9
2014-Oct-13 20:30N 34°28' E 135°17'0 0.1
2014-Oct-13 19:30N 34°28' E 135°17'0 0.0
2014-Oct-13 18:12N 34°28' E 135°17'0 0.0
2014-Oct-13 17:30N 34°28' E 135°17'0 0.0
2014-Oct-13 16:06N 34°28' E 135°17'0 0.0
2014-Oct-13 14:30N 34°28' E 135°17'0 0.0
2014-Oct-13 13:30N 34°28' E 135°17'0 0.0
2014-Oct-13 12:30N 34°28' E 135°17'0 0.1
2014-Oct-13 10:30N 34°28' E 135°17'0 0.1
2014-Oct-13 09:24N 34°28' E 135°17'0 0.0
2014-Oct-13 07:18N 34°28' E 135°17'0 0.1
2014-Oct-13 06:30N 34°28' E 135°17'0 0.0
2014-Oct-13 05:30N 34°28' E 135°17'0 0.1
2014-Oct-13 04:30N 34°28' E 135°17'0 0.1
2014-Oct-13 03:30N 34°28' E 135°17'0 0.0
2014-Oct-13 02:30N 34°28' E 135°17'0 0.1
2014-Oct-13 01:30N 34°28' E 135°17'0 0.1
2014-Oct-13 00:30N 34°28' E 135°17'0 0.0
2014-Oct-12 23:24N 34°28' E 135°17'0 0.0
2014-Oct-12 22:24N 34°28' E 135°17'0 0.0
2014-Oct-12 21:30N 34°28' E 135°17'0 0.0
2014-Oct-12 20:30N 34°28' E 135°17'0 0.0
2014-Oct-12 19:30N 34°28' E 135°17'0 0.0
2014-Oct-12 18:30N 34°28' E 135°17'0 0.0
2014-Oct-12 17:24N 34°28' E 135°17'0 0.0
2014-Oct-12 16:30N 34°28' E 135°17'0 0.0
2014-Oct-12 15:32N 34°28' E 135°17'2 2.4
2014-Oct-12 14:32N 34°28' E 135°14'8 8.7
2014-Oct-12 13:33N 34°36' E 135°10'4 4.5
2014-Oct-12 12:33N 34°41' E 135°11'3 2.7
2014-Oct-12 11:33N 34°38' E 135°11'2 2.0
2014-Oct-12 10:33N 34°40' E 135°11'1 0.8
2014-Oct-12 09:33N 34°39' E 135°11'1 0.5
2014-Oct-12 08:33N 34°39' E 135°11'2 1.8
2014-Oct-12 07:25N 34°41' E 135°11'3 3.9
2014-Oct-12 06:34N 34°38' E 135°09'3 3.3
2014-Oct-12 05:33N 34°41' E 135°11'1 0.7
2014-Oct-12 04:33N 34°40' E 135°12'3 3.1
2014-Oct-12 03:33N 34°38' E 135°09'3 3.3
2014-Oct-12 02:33N 34°41' E 135°11'  
Track history (hours):
 
Tides and Currents Weather Stations Pressure Air Temp Water Temp Dewpoint Dewpoint Depression Visibility Wind Speed Wind Dir Waves Ship Positions

Concerto

Last reported at 2014-Oct-21 11:33 UTC. Time now 2014-Oct-21 20:10 UTC.
Position N 34°38' E 135°10'.

Length 62 m; draft 3 m.

Type: Passenger vessel. MMSI: 431000448.

Date/timePositionNaut miles runAvg speedWind from/ knotsBaromVisibWave heightAir tempDewpointWater temp
2014-Oct-21 11:33N 34°38' E 135°10'2 2.1
2014-Oct-21 10:33N 34°40' E 135°11'1 0.7
2014-Oct-21 09:34N 34°39' E 135°11'1 0.7
2014-Oct-21 08:34N 34°39' E 135°11'2 2.0
2014-Oct-21 07:25N 34°41' E 135°11'3 3.9
2014-Oct-21 06:33N 34°38' E 135°09'3 2.2
2014-Oct-21 05:04N 34°41' E 135°11'0 0.8
2014-Oct-21 04:33N 34°40' E 135°11'3 3.1
2014-Oct-21 03:33N 34°38' E 135°09'3 3.2
2014-Oct-21 02:33N 34°41' E 135°11'3 0.2
2014-Oct-20 11:33N 34°38' E 135°11'2 1.8
2014-Oct-20 10:33N 34°40' E 135°11'1 0.7
2014-Oct-20 09:33N 34°39' E 135°11'1 0.9
2014-Oct-20 08:33N 34°38' E 135°11'2 2.2
2014-Oct-20 07:28N 34°41' E 135°11'3 3.4
2014-Oct-20 06:33N 34°38' E 135°09'3 2.6
2014-Oct-20 05:24N 34°41' E 135°11'1 0.8
2014-Oct-20 04:33N 34°40' E 135°12'3 2.9
2014-Oct-20 03:33N 34°38' E 135°09'3 3.1
2014-Oct-20 02:33N 34°41' E 135°11'3 0.2
2014-Oct-19 11:33N 34°38' E 135°10'3 2.6
2014-Oct-19 10:33N 34°40' E 135°11'1 1.0
2014-Oct-19 09:33N 34°39' E 135°11'1 0.7
2014-Oct-19 08:33N 34°39' E 135°11'2 2.2
2014-Oct-19 07:33N 34°41' E 135°11'3 3.0
2014-Oct-19 06:33N 34°38' E 135°09'3 2.9
2014-Oct-19 05:31N 34°41' E 135°11'1 0.7
2014-Oct-19 04:33N 34°40' E 135°12'3 3.1
2014-Oct-19 03:33N 34°38' E 135°09'2 0.1
2014-Oct-18 11:33N 34°38' E 135°11'2 1.8
2014-Oct-18 10:33N 34°40' E 135°11'0 0.2
2014-Oct-18 09:33N 34°39' E 135°11'1 1.1
2014-Oct-18 08:34N 34°39' E 135°11'2 2.2
2014-Oct-18 07:30N 34°41' E 135°11'3 3.7
2014-Oct-18 06:33N 34°38' E 135°09'3 3.0
2014-Oct-18 05:24N 34°41' E 135°11'1 0.7
2014-Oct-18 04:33N 34°40' E 135°12'3 3.2
2014-Oct-18 03:33N 34°38' E 135°09'3 3.4
2014-Oct-18 02:33N 34°41' E 135°11'3 0.2
2014-Oct-17 11:33N 34°38' E 135°11'2 1.9
2014-Oct-17 10:33N 34°40' E 135°11'1 0.5
2014-Oct-17 09:33N 34°39' E 135°11'1 1.0
2014-Oct-17 08:33N 34°39' E 135°10'2 2.3
2014-Oct-17 07:33N 34°41' E 135°11'4 3.8
2014-Oct-17 06:33N 34°38' E 135°09'4 3.5
2014-Oct-17 05:29N 34°41' E 135°11'0 0.5
2014-Oct-17 04:33N 34°40' E 135°11'3 3.4
2014-Oct-17 03:33N 34°38' E 135°09'4 3.6
2014-Oct-17 02:33N 34°41' E 135°11'3 0.2
2014-Oct-16 11:33N 34°38' E 135°10'2 2.1
2014-Oct-16 10:33N 34°40' E 135°11'0 0.2
2014-Oct-16 09:33N 34°40' E 135°11'1 1.1
2014-Oct-16 08:33N 34°39' E 135°11'2 1.8
2014-Oct-16 07:24N 34°41' E 135°11'3 3.8
2014-Oct-16 06:33N 34°38' E 135°09'3 3.2
2014-Oct-16 05:33N 34°41' E 135°11'1 0.6
2014-Oct-16 04:33N 34°40' E 135°12'3 2.7
2014-Oct-16 03:33N 34°38' E 135°10'3 2.9
2014-Oct-16 02:33N 34°41' E 135°11'3 0.2
2014-Oct-15 11:33N 34°38' E 135°11'2 1.5
2014-Oct-15 10:33N 34°40' E 135°11'0 0.5
2014-Oct-15 09:33N 34°39' E 135°11'1 0.9
2014-Oct-15 08:33N 34°38' E 135°11'2 2.4
2014-Oct-15 07:33N 34°41' E 135°11'4 3.6
2014-Oct-15 06:33N 34°38' E 135°09'4 3.6
2014-Oct-15 05:33N 34°41' E 135°11'1 0.6
2014-Oct-15 04:33N 34°40' E 135°12'3 3.3
2014-Oct-15 03:33N 34°38' E 135°09'3 3.5
2014-Oct-15 02:33N 34°41' E 135°11'3 0.2
2014-Oct-14 11:33N 34°38' E 135°11'2 1.7
2014-Oct-14 10:33N 34°40' E 135°11'0 0.4
2014-Oct-14 09:33N 34°39' E 135°11'1 0.9
2014-Oct-14 08:33N 34°38' E 135°11'2 2.4
2014-Oct-14 07:32N 34°41' E 135°11'4 3.7
2014-Oct-14 06:33N 34°38' E 135°09'4 3.6
2014-Oct-14 05:32N 34°41' E 135°11'1 0.6
2014-Oct-14 04:33N 34°40' E 135°12'3 3.3
2014-Oct-14 03:33N 34°38' E 135°09'3 3.5
2014-Oct-14 02:33N 34°41' E 135°11'0 0.0
2014-Oct-14 01:33N 34°41' E 135°11'0 0.0
2014-Oct-14 00:33N 34°41' E 135°11'0 0.0
2014-Oct-13 23:33N 34°41' E 135°11'2 2.4
2014-Oct-13 22:33N 34°38' E 135°11'6 6.4
2014-Oct-13 21:33N 34°32' E 135°14'5 4.9
2014-Oct-13 20:30N 34°28' E 135°17'0 0.1
2014-Oct-13 19:30N 34°28' E 135°17'0 0.0
2014-Oct-13 18:12N 34°28' E 135°17'0 0.0
2014-Oct-13 17:30N 34°28' E 135°17'0 0.0
2014-Oct-13 16:06N 34°28' E 135°17'0 0.0
2014-Oct-13 14:30N 34°28' E 135°17'0 0.0
2014-Oct-13 13:30N 34°28' E 135°17'0 0.0
2014-Oct-13 12:30N 34°28' E 135°17'0 0.1
2014-Oct-13 10:30N 34°28' E 135°17'0 0.1
2014-Oct-13 09:24N 34°28' E 135°17'0 0.0
2014-Oct-13 07:18N 34°28' E 135°17'0 0.1
2014-Oct-13 06:30N 34°28' E 135°17'0 0.0
2014-Oct-13 05:30N 34°28' E 135°17'0 0.1
2014-Oct-13 04:30N 34°28' E 135°17'0 0.1
2014-Oct-13 03:30N 34°28' E 135°17'0 0.0
2014-Oct-13 02:30N 34°28' E 135°17'0 0.1
2014-Oct-13 01:30N 34°28' E 135°17'0 0.1
2014-Oct-13 00:30N 34°28' E 135°17'0 0.0
2014-Oct-12 23:24N 34°28' E 135°17'0 0.0
2014-Oct-12 22:24N 34°28' E 135°17'0 0.0
2014-Oct-12 21:30N 34°28' E 135°17'0 0.0
2014-Oct-12 20:30N 34°28' E 135°17'0 0.0
2014-Oct-12 19:30N 34°28' E 135°17'0 0.0
2014-Oct-12 18:30N 34°28' E 135°17'0 0.0
2014-Oct-12 17:24N 34°28' E 135°17'0 0.0
2014-Oct-12 16:30N 34°28' E 135°17'0 0.0
2014-Oct-12 15:32N 34°28' E 135°17'2 2.4
2014-Oct-12 14:32N 34°28' E 135°14'8 8.7
2014-Oct-12 13:33N 34°36' E 135°10'4 4.5
2014-Oct-12 12:33N 34°41' E 135°11'3 2.7
2014-Oct-12 11:33N 34°38' E 135°11'2 2.0
2014-Oct-12 10:33N 34°40' E 135°11'1 0.8
2014-Oct-12 09:33N 34°39' E 135°11'1 0.5
2014-Oct-12 08:33N 34°39' E 135°11'2 1.8
2014-Oct-12 07:25N 34°41' E 135°11'3 3.9
2014-Oct-12 06:34N 34°38' E 135°09'3 3.3
2014-Oct-12 05:33N 34°41' E 135°11'1 0.7
2014-Oct-12 04:33N 34°40' E 135°12'3 3.1
2014-Oct-12 03:33N 34°38' E 135°09'3 3.3
2014-Oct-12 02:33N 34°41' E 135°11'  

Dump ship's entire track history